Regional Weather Roundup
Issued by NWS

Home | Current Version | Previous Version | Graphics & Text | Print | Product List | Glossary On
Versions: 1 2 3 4 5 6 7 8 9 10 11 12 13 14 15 16 17 18 19 20 21 22 23 24 25 26 27 28 29 30 31 32 33 34 35 36 37 38 39 40 41 42 43 44 45 46 47 48 49 50
000
ASUS43 KLMK 020902
RWRKY
KENTUCKY REGIONAL WEATHER ROUNDUP
NATIONAL WEATHER SERVICE LOUISVILLE KY
500 AM EDT THU OCT 02 2014

NOTE "FAIR" INDICATES FEW OR NO CLOUDS BELOW 12,000 FEET
WITH NO SIGNIFICANT WEATHER AND/OR OBSTRUCTIONS TO VISIBILITY.

KYZ001>023-026-027-061>063-070>075-021000-
WESTERN AND SOUTH CENTRAL KENTUCKY

CITY           SKY/WX    TMP DP  RH WIND       PRES   REMARKS
PADUCAH        CLOUDY    70  60  70 S5        29.90R
HENDERSON      NOT AVBL
OWENSBORO      CLEAR     65  56  72 SE7       29.94S
HOPKINSVILLE   CLEAR     67  62  83 SE6       29.94S
BOWLING GREEN  CLEAR     59  56  89 NE3       29.98R
GLASGOW        CLEAR     64  56  75 CALM      29.99R
$$

KYZ024-025-028>034-038-045-046-053-021000-
NORTH CENTRAL KENTUCKY

CITY           SKY/WX    TMP DP  RH WIND       PRES   REMARKS
LOUISVILLE/SDF PTCLDY    65  57  75 SE6       29.97R
LOUISVILLE/LOU CLEAR     63  57  81 CALM      29.98R
FORT KNOX      CLEAR     60  55  84 E3        29.97R
$$

KYZ035>037-039>044-047>052-055>060-089>105-021000-
NORTHEAST KENTUCKY

CITY           SKY/WX    TMP DP  RH WIND       PRES   REMARKS
LEXINGTON      CLEAR     63  58  83 SE6       30.02S
COVINGTON      MOCLDY    60  53  77 E6        30.00S
FRANKFORT      PTCLDY    62  57  83 S5        29.99S
$$

KYZ054-064>069-076>088-106>120-021000-
SOUTHEAST KENTUCKY

CITY           SKY/WX    TMP DP  RH WIND       PRES   REMARKS
JACKSON        CLEAR     61  57  87 CALM      30.06R
LONDON         CLEAR     56  53  90 CALM      30.05S FOG
SOMERSET       PTCLDY    55  55 100 CALM      30.04S
MIDDLESBORO    FOG       53  53 100 CALM      30.09R VSB 1/4
MONTICELLO     SUNNY     56  55  96 CALM      30.04S
$$



USA.gov is the U.S. government's official web portal to all federal, state and local government web resources and services.